www.pogodaiklimat.ru

Погода и климат >> Архив погоды >> Россия >> Якутия >> Мыс Быков


ПОГОДА на Мысе Быков

  • Прогноз погоды на Мысе Быков
  • Монитор погоды на Мысе Быков

АРХИВ ПОГОДЫ на Мысе Быков

Время (UTC), дата Ветер
(напр.,м/с)
 
Видим.   Явления Облачность Т
(С)
Тd
(С)
f
(%)
Тe
(С)
Тes
(С)
Комфортность P
(гПа)
Po
(гПа)
Тmin
(С)
Tmax
(С)
R
(мм)
R24
(мм)
S
(см)
15 16.05 З 1 4000 м слаб. снег 10/0
[As op]
-9.0 -11.5 82 -11 -11 1024.7 1022.7
18 16.05 З 2 4000 м слаб. снег 10/0
[As op]
-9.3 -11.8 82 -14 -14 1024.4 1022.4
21 16.05 ЮЗ 3 4000 м {снег} 10/0
[As op]
-8.6 -11.0 83 -14 -14 1024.4 1022.4
00 17.05 штиль 0 20 км {снег} 10/0
[Ac und]
-7.0 -12.2 66 -8 -5 1024.6 1022.6 -9.6 1 23
03 17.05 С 1 20 км {снег} 10/0
[Ac und]
-5.0 -9.9 68 -7 -4 1024.8 1022.8
06 17.05 ЮЗ 2 4000 м слаб. снег 10/0
[As op]
-6.2 -9.9 75 -10 -9 1025.9 1023.9
09 17.05 С 6 4000 м слаб. снег 10/0
[As op]
-6.8 -9.3 82 -15 -15 1026.7 1024.7
12 17.05 С 6 4000 м слаб. снег 10/0
[As op]
-6.9 -9.4 82 -15 -15 1028.2 1026.2 -5.0 1 2
15 17.05 С 3 4000 м слаб. снег 10/0
[As op]
-7.8 -10.0 84 -14 -14 1028.6 1026.6
18 17.05 С 2 4000 м слаб. снег 10/0
[As op]
-8.0 -9.8 87 -12 -12 1029.0 1027.0
21 17.05 С 3 4000 м слаб. снег 10/0
[As op]
-8.4 -10.3 86 -14 -14 1028.4 1026.4
00 18.05 С 5 4000 м слаб. снег 10/0
[As op]
-8.9 -11.8 79 -17 -16 1028.0 1026.0 -8.9 2 23
03 18.05 С 4 20 км {снег} 10/0
[As op]
-8.0 -11.6 75 -15 -13 1028.3 1026.3
06 18.05 С 3 20 км {снег} 10/0
[As op]
-7.9 -11.5 75 -14 -12 1028.3 1026.3
09 18.05 С 5 4000 м слаб. снег 10/0
[As op]
-8.5 -11.8 77 -16 -16 1027.8 1025.8
12 18.05 С 5 4000 м слаб. снег 10/0
[As op]
-9.6 -12.2 81 -17 -17 1027.8 1025.8 -7.9 2
15 18.05 СЗ 5 4000 м слаб. снег 10/0
[As op]
-12.6 -14.6 85 -21 -21 1026.9 1024.9
18 18.05 СЗ 5 20 км {снег} 10/0
[Ci fib]
-13.5 -15.5 85 -22 -22 1025.4 1023.4
21 18.05 СЗ 7 4000 м слаб. снег 10/0
[As op]
-11.1 -13.1 85 -20 -20 1024.5 1022.5
00 19.05 СЗ 7 4000 м слаб. снег {метель} 10/0
[As op]
-10.2 -13.0 80 -19 -19 1023.4 1021.4 -13.5 2 23
03 19.05 СЗ 7 4000 м слаб. снег {метель} 10/0
[As op]
-8.2 -10.9 81 -17 -17 1021.5 1019.5
06 19.05 СЗ 6 4000 м слаб. снег 10/0
[As op]
-9.8 -13.4 75 -18 -18 1021.9 1019.9
09 19.05 СЗ 5 4000 м слаб. снег 10/0
[As op]
-9.6 -12.7 78 -17 -17 1021.0 1019.0
12 19.05 СЗ 4 20 км {снег} 4/0
[Ci fib]
-10.7 -13.5 80 -18 -17 1020.2 1018.2 -8.2 0.5
15 19.05 З 4 4000 м слаб. снег 10/0
[Cs]
-14.1 -16.1 85 -22 -22 1018.4 1016.4
18 19.05 З 4 20 км {снег} 10/0
[Cs]
-15.3 -18.0 80 -23 -23 1016.9 1014.9
21 19.05 СЗ 3 20 км 10/0
[Cc]
-13.7 -16.4 80 -20 -19 1016.1 1014.1
00 20.05 З 7 4000 м слаб. снег {метель} 10/0
[Cs]
-11.1 -13.9 80 -20 -19 1014.9 1012.9 -15.6 0.0 22
03 20.05 З 7 4000 м слаб. снег {метель} 10/0
[Cs]
-8.0 -11.2 78 -17 -15 1013.8 1011.8
06 20.05 З 7 4000 м слаб. снег {метель} 10/0
[Cs]
-8.5 -12.3 74 -17 -16 1013.3 1011.3
09 20.05 З 6 4000 м {снег} 10/0
[Cs]
-7.6 -10.7 78 -16 -15 1013.1 1011.1
12 20.05 З 5 20 км {снег} 10/0
[Ac trans Cc]
-8.6 -11.9 77 -16 -16 1013.1 1011.1 -7.5 0.0
15 20.05 ЮЗ 5
{10}
20 км {метель} 10/0
[Ac trans Cc]
-10.1 -12.9 80 -18 -18 1012.1 1010.1
18 20.05 З 4-10
{11}
4000 м слаб. снег 10/0
[As op]
-10.3 -12.3 85 -17 -17 1011.3 1009.3
21 20.05 З 3
{11}
20 км {снег, метель} 10/0
[Cc]
-10.3 -12.3 85 -16 -15 1011.0 1009.0
00 21.05 ЮЗ 8-11
{11}
20 км позёмок {снег} 10/0
[Ac und]
-7.3 -10.3 79 -17 -16 1011.9 1009.9 -10.8 0.5 22
03 21.05 ЮЗ 6
{11}
20 км позёмок 6/0
[Ac trans]
-5.5 -9.7 72 -13 -11 1012.8 1010.8
06 21.05 З 4
{10}
20 км {метель} 8/0
[Ac trans Ci fib]
-4.7 -9.5 69 -11 -8 1013.5 1011.5
09 21.05 ЮЗ 2 20 км 3/0
[Ac trans Ci fib]
-4.4 -9.5 68 -8 -6 1013.8 1011.8
12 21.05 ЮВ 3 20 км ясно -8.9 -11.8 79 -15 -14 1013.8 1011.8 -4.1
15 21.05 ЮВ 3 20 км 5/0
[Ci fib]
-12.4 -14.4 85 -18 -18 1012.6 1010.6
18 21.05 ЮВ 5 20 км 8/0
[Ci fib]
-13.3 -15.3 85 -22 -22 1011.1 1009.1
21 21.05 ЮВ 5 20 км 3/0
[Ci fib]
-9.9 -12.5 81 -18 -17 1010.6 1008.6
00 22.05 ЮВ 5 20 км 8/0
[Ci fib]
-5.2 -8.1 80 -12 -10 1009.9 1007.9 -13.3 21
03 22.05 ЮВ 5 20 км 6/0
[Ci fib]
-2.2 -5.6 77 -9 -5 1009.3 1007.3
06 22.05 ЮВ 5 20 км 3/0
[Ci fib]
0.0 -3.4 78 -6 -2 1007.8 1005.8
09 22.05 ЮВ 5 20 км ясно -1.4 -5.0 76 -8 -6 1007.3 1005.3
12 22.05 ЮВ 5 20 км ясно -1.1 -4.6 77 -7 -7 1006.6 1004.6 -0.0
15 22.05 ЮВ 4 20 км ясно -6.1 -8.0 86 -13 -13 1004.6 1002.6
18 22.05 ЮВ 3 20 км ясно -4.4 -6.7 84 -10 -9 1004.3 1002.3
21 22.05 ЮВ 3 20 км ясно -4.0 -6.2 85 -9 -7 1003.5 1001.5
00 23.05 В 3 20 км ясно -4.5 -6.8 84 -10 -5 1002.3 1000.3 -6.6 19
03 23.05 В 4 20 км ясно -2.4 -4.7 84 -8 -2 1000.7 998.7
06 23.05 В 5 20 км 10/0
[Ac trans Cc]
-2.3 -4.6 84 -9 -7 1001.9 999.9
09 23.05 СВ 4 20 км 10/0
[Ac und]
-3.7 -5.8 85 -10 -9 1002.9 1000.9
12 23.05 В 4 20 км 10/0
[Ac trans Cc]
-2.3 -3.6 91 -8 -8 1003.4 1001.4 -0.4

 

Местоположение метеостанции Мыс Быков (Якутия, Россия): широта 72.00 долгота 129.10 высота над уровнем моря 16 м.

В архиве по умолчанию представлена погода на Мысе Быков за последнюю неделю. Архивные данные за месяц целиком и за предыдущие месяцы, начиная с января 2011 года, Вы можете получить, выбрав интересующий диапазон дат из раскрывающегося списка и нажав кнопку "Ввод!".


*Определитесь, кто Вы:
робот инопланетянин человек

Внимание! Время в таблицах - всемирное. Для получения местного времени необходимо прибавить поправку, которая равна 9 ч.

Смотрите также архив погоды в соседних городах и на ближайших метеорологических станциях:

Погода в Тикси (Якутия, Россия) (47 км)
Погода на Столб Острове (Якутия, Россия) (105 км)
Погода в Кюсюре (Якутия, Россия) (159 км)
Погода в Тюмяти (Якутия, Россия) (193 км)
Погода в Юбилейной (Якутия, Россия) (287 км)
Погода в Усть-Куйге (Якутия, Россия) (324 км)
Погода на Усть-Оленеке (Якутия, Россия) (330 км)
Погода на Мысе Кигилях (Якутия, Россия) (384 км)
Погода в Джарджане (Якутия, Россия) (410 км)
Погода на Проливе Санникова (Якутия, Россия) (430 км)

Пояснения к столбцам:

Ветер - указаны скорость ветра в м/с - средняя за 10 мин, порывы в срок и между сроками (в фигурных скобках) и направление, откуда дует ветер: С - северный, СВ - северо-восточный, В - восточный, ЮВ - юго-восточный, Ю - южный, ЮЗ - юго-западный, З - западный, СЗ - северо-западный.
Видимость - горизонтальная дальность видимости в метрах или километрах. При видимости от 1 до 10 км при отсутствии осадков обычно наблюдается дымка, при ухудшении видимости до 1 км и менее - туман. В сухую погоду видимость может ухудшаться дымом, пылью или мглою.
Явления - указаны атмосферные явления, наблюдавшиеся в срок или в последний час перед сроком; фигурными скобками обозначены явления, наблюдавшиеся между сроками (за 1-3 часа до срока); квадратными скобками обозначены град или гололедные отложения с указанием их диаметра в мм.
Облачность - указаны через наклонную черту общая и нижняя облачность в баллах и высота нижней границы облаков в метрах; квадратными скобками обозначены формы облаков: Ci - перистые, Cs - перисто-слоистые, Cc - перисто-кучевые, Ac - высококучевые, As - высокослоистые, Sc - слоисто-кучевые, Ns - слоисто-дождевые, Cu - кучевые, Cb - кучево-дождевые. Подробнее классификацию облаков см. в Атласе облаков (PDF).
T - Температура воздуха - температура, измеренная на высоте 2 м над землей.
Td - Температура точки росы - температура, при понижении до которой содержащийся в воздухе водяной пар достигнет насыщения.
f - Относительная влажность воздуха - влажноcть воздуха, измеренная на высоте 2 м над землей.
Te - Эффективная температура - температура, которую ощущает одетый по сезону человек в тени. Характеристика душности погоды. При расчете учитывается влияние влажности воздуха и скорости ветра на теплоощущения человека.
Tes - Эффективная температура на солнце - температура, которую ощущает человек, с поправкой на солнечный нагрев. Характеристика знойности погоды. Зависит от высоты солнца над горизонтом, облачности и скорости ветра. Ночью, в пасмурную погоду, а также при ветре 12 м/с и более поправка равна нулю.
P - Атмосферное давление - приведенное к уровню моря атмосферное давление.
Po - Атмосферное давление - измеренное на уровне метеостанции атмосферное давление.
Tmin - Минимальная температура - минимум температуры воздуха на высоте 2 м над землей.
Tmax - Максимальная температура - максимум температуры воздуха на высоте 2 м над землей.
R - Количество осадков - Количество выпавших осадков за период времени, мм. При наведении курсора мыши на число - период времени, за который выпало указанное количество осадков.
R24 - Количество осадков - Количество выпавших осадков за 24 часа, мм.
S - Снежный покров - Высота снежного покрова, см. При наведении курсора мыши на число - состояние снежного покрова и степень покрытия местности в баллах.